WGN618 KPDX-KSLC

Flight info

Callsign WGN618
Flight time N/A
Altitude 35000
Route WHAMY5 IMB J15 BOI BYI SKEES6
Aircraft MD1F/H-SDE1E2E3FGHIJ2J3J4J5M1RWXY/LB1D1

Departure

Time 2026-05-08 00:20
Airport Portland International Airport (KPDX)

Arrival

Time N/A
Airport Salt Lake City International Airport (KSLC)
Time Latitude Longitude Altitude Speed Heading
2026-05-07 23:45 45.58091 -122.60927 31 ft 0 kts 46°
2026-05-08 00:07 45.58087 -122.60931 31 ft 3 kts 47°
2026-05-08 00:07 45.58073 -122.60953 31 ft 1 kts 46°
2026-05-08 00:08 45.58065 -122.60965 31 ft 1 kts 41°
2026-05-08 00:08 45.58058 -122.60972 31 ft 1 kts 28°
2026-05-08 00:08 45.58050 -122.60977 31 ft 1 kts
2026-05-08 00:08 45.58042 -122.60978 31 ft 1 kts 353°
2026-05-08 00:09 45.58035 -122.60975 31 ft 1 kts 336°
2026-05-08 00:09 45.58028 -122.60970 31 ft 0 kts 321°
2026-05-08 00:09 45.58024 -122.60964 31 ft 0 kts 316°
2026-05-08 00:12 45.58029 -122.60971 31 ft 2 kts 316°
2026-05-08 00:13 45.58057 -122.61018 32 ft 8 kts 309°
2026-05-08 00:13 45.58112 -122.61114 32 ft 12 kts 313°
2026-05-08 00:13 45.58186 -122.61223 32 ft 14 kts 315°
2026-05-08 00:13 45.58260 -122.61328 32 ft 10 kts 322°
2026-05-08 00:14 45.58333 -122.61328 32 ft 11 kts 36°
2026-05-08 00:14 45.58401 -122.61237 32 ft 13 kts 46°
2026-05-08 00:14 45.58473 -122.61133 32 ft 15 kts 45°
2026-05-08 00:14 45.58557 -122.61015 32 ft 17 kts 44°
2026-05-08 00:15 45.58653 -122.60880 32 ft 20 kts 46°
2026-05-08 00:15 45.58754 -122.60732 31 ft 12 kts 46°
2026-05-08 00:15 45.58789 -122.60616 31 ft 14 kts 105°
2026-05-08 00:15 45.58735 -122.60466 31 ft 17 kts 119°
2026-05-08 00:16 45.58666 -122.60292 31 ft 20 kts 120°
2026-05-08 00:16 45.58588 -122.60088 31 ft 23 kts 119°
2026-05-08 00:16 45.58499 -122.59861 32 ft 25 kts 120°
2026-05-08 00:16 45.58398 -122.59602 31 ft 28 kts 119°
2026-05-08 00:17 45.58290 -122.59325 31 ft 30 kts 120°
2026-05-08 00:17 45.58168 -122.59015 32 ft 33 kts 120°
2026-05-08 00:17 45.58041 -122.58686 31 ft 35 kts 120°
2026-05-08 00:17 45.57982 -122.58526 31 ft 4 kts 97°
2026-05-08 00:18 45.57982 -122.58524 31 ft 0 kts 97°
2026-05-08 00:18 45.57982 -122.58521 31 ft 1 kts 96°
2026-05-08 00:18 45.57986 -122.58484 31 ft 7 kts 68°
2026-05-08 00:19 45.58044 -122.58436 31 ft 9 kts 349°
2026-05-08 00:19 45.58098 -122.58515 31 ft 11 kts 301°
2026-05-08 00:19 45.58160 -122.58672 31 ft 28 kts 300°
2026-05-08 00:19 45.58404 -122.59296 33 ft 109 kts 299°
2026-05-08 00:20 45.58947 -122.60683 36 ft 181 kts 299°
2026-05-08 00:20 45.59618 -122.62356 886 ft 169 kts 301°
2026-05-08 00:20 45.60178 -122.63698 1757 ft 158 kts 302°
2026-05-08 00:20 45.60822 -122.65210 2024 ft 173 kts 303°
2026-05-08 00:21 45.61520 -122.66763 2517 ft 179 kts 303°
2026-05-08 00:21 45.62248 -122.68439 3059 ft 185 kts 300°
2026-05-08 00:21 45.63002 -122.70305 3414 ft 206 kts 300°
2026-05-08 00:21 45.63861 -122.72466 3657 ft 238 kts 300°
2026-05-08 00:22 45.64801 -122.74817 4346 ft 256 kts 300°
2026-05-08 00:22 45.65797 -122.77266 5285 ft 267 kts 300°
2026-05-08 00:22 45.66723 -122.79859 6364 ft 270 kts 288°
2026-05-08 00:22 45.67063 -122.82739 7480 ft 273 kts 268°
2026-05-08 00:23 45.66695 -122.85777 8589 ft 278 kts 255°
2026-05-08 00:23 45.65840 -122.88724 9679 ft 283 kts 238°
2026-05-08 00:23 45.64252 -122.91082 10713 ft 292 kts 215°
2026-05-08 00:23 45.61983 -122.92410 11376 ft 318 kts 191°
2026-05-08 00:24 45.59314 -122.92255 11641 ft 356 kts 168°
2026-05-08 00:24 45.56530 -122.90694 11907 ft 391 kts 150°
2026-05-08 00:24 45.54060 -122.87831 12679 ft 409 kts 133°
2026-05-08 00:24 45.52193 -122.84032 13581 ft 420 kts 117°
2026-05-08 00:25 45.50856 -122.79698 14527 ft 428 kts 111°
2026-05-08 00:25 45.49625 -122.75189 15527 ft 435 kts 111°
2026-05-08 00:25 45.48310 -122.70653 16519 ft 441 kts 112°
2026-05-08 00:25 45.46916 -122.66138 17480 ft 447 kts 114°
2026-05-08 00:26 45.45448 -122.61515 18423 ft 453 kts 114°
2026-05-08 00:26 45.43959 -122.56868 19338 ft 459 kts 114°
2026-05-08 00:26 45.42433 -122.52094 20226 ft 465 kts 114°
2026-05-08 00:26 45.40903 -122.47281 21089 ft 472 kts 114°
2026-05-08 00:27 45.39329 -122.42310 21956 ft 478 kts 114°
2026-05-08 00:27 45.37773 -122.37369 22812 ft 483 kts 114°
2026-05-08 00:27 45.36233 -122.32461 23628 ft 489 kts 115°
2026-05-08 00:27 45.34700 -122.27580 24422 ft 494 kts 114°
2026-05-08 00:28 45.33286 -122.23068 25081 ft 499 kts 114°
2026-05-08 00:28 45.31872 -122.18551 25747 ft 503 kts 114°
2026-05-08 00:28 45.30445 -122.13974 26357 ft 509 kts 114°
2026-05-08 00:28 45.29022 -122.09415 26984 ft 513 kts 114°
2026-05-08 00:29 45.27577 -122.04786 27583 ft 519 kts 114°
2026-05-08 00:29 45.26104 -122.00052 28186 ft 524 kts 114°
2026-05-08 00:29 45.24688 -121.95149 28789 ft 527 kts 109°
2026-05-08 00:29 45.23378 -121.90042 29518 ft 529 kts 110°
2026-05-08 00:30 45.22076 -121.85036 30360 ft 527 kts 109°
2026-05-08 00:30 45.20721 -121.79890 31213 ft 525 kts 110°
2026-05-08 00:30 45.19370 -121.74809 32014 ft 523 kts 111°
2026-05-08 00:30 45.18049 -121.69855 32773 ft 520 kts 109°
2026-05-08 00:31 45.16744 -121.64907 33435 ft 519 kts 110°
2026-05-08 00:31 45.15422 -121.59898 34093 ft 518 kts 110°
2026-05-08 00:31 45.14120 -121.54964 34733 ft 516 kts 109°
2026-05-08 00:31 45.12803 -121.49915 34943 ft 517 kts 109°
2026-05-08 00:32 45.10105 -121.39604 34889 ft 512 kts 109°
2026-05-08 00:32 45.07398 -121.29220 34942 ft 511 kts 110°
2026-05-08 00:33 45.04673 -121.18715 34944 ft 512 kts 110°
2026-05-08 00:33 45.01951 -121.08183 34945 ft 513 kts 109°
2026-05-08 00:34 44.99262 -120.97739 34938 ft 514 kts 109°
2026-05-08 00:34 44.96610 -120.87413 34934 ft 514 kts 109°
2026-05-08 00:35 44.93848 -120.77183 34942 ft 514 kts 111°
2026-05-08 00:35 44.91012 -120.67024 34932 ft 514 kts 110°
2026-05-08 00:36 44.88119 -120.56580 34929 ft 513 kts 110°
2026-05-08 00:36 44.85278 -120.46260 34926 ft 512 kts 110°
2026-05-08 00:37 44.82407 -120.35799 34923 ft 512 kts 110°
2026-05-08 00:38 44.78157 -120.20239 34908 ft 512 kts 110°
2026-05-08 00:38 44.75258 -120.09571 34912 ft 512 kts 110°
2026-05-08 00:39 44.72434 -119.99152 34926 ft 512 kts 110°
2026-05-08 00:39 44.69600 -119.88641 34939 ft 512 kts 110°
2026-05-08 00:40 44.66821 -119.78324 34954 ft 513 kts 109°
2026-05-08 00:40 44.63978 -119.68113 34958 ft 513 kts 111°
2026-05-08 00:41 44.60934 -119.58073 34966 ft 514 kts 112°
2026-05-08 00:41 44.57763 -119.47592 34963 ft 514 kts 111°
2026-05-08 00:42 44.54591 -119.37014 34967 ft 514 kts 111°
2026-05-08 00:42 44.51511 -119.26710 34972 ft 515 kts 112°
2026-05-08 00:43 44.48419 -119.16342 34978 ft 515 kts 111°
2026-05-08 00:43 44.45334 -119.05965 34991 ft 515 kts 111°
2026-05-08 00:44 44.42390 -118.96011 34998 ft 514 kts 111°
2026-05-08 00:44 44.39433 -118.86011 34990 ft 514 kts 111°
2026-05-08 00:45 44.36544 -118.76171 34988 ft 515 kts 111°
2026-05-08 00:45 44.33741 -118.66640 34992 ft 516 kts 110°
2026-05-08 00:46 44.30909 -118.57206 34985 ft 516 kts 113°
2026-05-08 00:46 44.27972 -118.47930 34993 ft 517 kts 112°
2026-05-08 00:47 44.24961 -118.38423 34991 ft 518 kts 111°
2026-05-08 00:47 44.21936 -118.28706 34989 ft 518 kts 113°
2026-05-08 00:48 44.18828 -118.18740 34984 ft 518 kts 112°
2026-05-08 00:48 44.15768 -118.08909 34981 ft 519 kts 112°
2026-05-08 00:49 44.12754 -117.99174 34977 ft 519 kts 111°
2026-05-08 00:49 44.09618 -117.89024 34988 ft 519 kts 111°
2026-05-08 00:50 44.07616 -117.82524 34971 ft 519 kts 111°